User: anonymous   Login
Location: Plainartige
(45.6866°N, 1.7993°E)
Time: 14:42:33
(UTC+00:00)
Language:

SL-08 R/B - Orbit

View from above orbital plane
View from above orbital plane
View from above satellite
View from above satellite

Ground track
Ground track

The orbit data is extracted from the following two-line orbital elements,

1 27819U 03023B   21126.91958580  .00000051  00000-0  37482-4 0  9996
2 27819  82.9504  55.1594 0047721  67.3610   0.7987 13.74249384898731
Epoch (UTC): 06 May 2021 22:04:12
Eccentricity: 0.0047721
inclination: 82.9504°
perigee height: 949 km
apogee height: 1019 km
right ascension of ascending node: 55.1594°
argument of perigee: 67.3610°
revolutions per day: 13.74249384
mean anomaly at epoch: 0.7987°
orbit number at epoch: 89873

The dashed part of the orbit path shows where the satellite is in the earth's shadow,  

DLR